Year,Month,Day,Hour,Minute,Value (Times are PST for temperature in C)
2018,08,11,00,00,9.20
2018,08,11,00,01,9.20
2018,08,11,00,02,9.20
2018,08,11,00,03,9.10
2018,08,11,00,04,9.10
2018,08,11,00,05,9.10
2018,08,11,00,06,9.10
2018,08,11,00,07,9.00
2018,08,11,00,08,9.00
2018,08,11,00,09,9.00
2018,08,11,00,10,9.00
2018,08,11,00,11,8.90
2018,08,11,00,12,8.90
2018,08,11,00,13,8.90
2018,08,11,00,14,8.90
2018,08,11,00,15,8.90
2018,08,11,00,16,8.90
2018,08,11,00,17,8.90
2018,08,11,00,18,8.80
2018,08,11,00,19,8.80
2018,08,11,00,20,8.80
2018,08,11,00,21,8.80
2018,08,11,00,22,8.80
2018,08,11,00,23,8.80
2018,08,11,00,24,8.80
2018,08,11,00,25,8.80
2018,08,11,00,26,8.80
2018,08,11,00,27,8.80
2018,08,11,00,28,8.70
2018,08,11,00,29,8.70
2018,08,11,00,30,8.70
2018,08,11,00,31,8.70
2018,08,11,00,32,8.70
2018,08,11,00,33,8.70
2018,08,11,00,34,8.70
2018,08,11,00,35,8.60
2018,08,11,00,36,8.60
2018,08,11,00,37,8.60
2018,08,11,00,38,8.50
2018,08,11,00,39,8.50
2018,08,11,00,40,8.50
2018,08,11,00,41,8.40
2018,08,11,00,42,8.40
2018,08,11,00,43,8.40
2018,08,11,00,44,8.40
2018,08,11,00,45,8.40
2018,08,11,00,46,8.40
2018,08,11,00,47,8.40
2018,08,11,00,48,8.40
2018,08,11,00,49,8.40
2018,08,11,00,50,8.30
2018,08,11,00,51,8.30
2018,08,11,00,52,8.30
2018,08,11,00,53,8.30
2018,08,11,00,54,8.30
2018,08,11,00,55,8.30
2018,08,11,00,56,8.30
2018,08,11,00,57,8.30
2018,08,11,00,58,8.30
2018,08,11,00,59,8.30
2018,08,11,01,00,8.20
2018,08,11,01,01,8.20
2018,08,11,01,02,8.20
2018,08,11,01,03,8.20
2018,08,11,01,04,8.10
2018,08,11,01,05,8.10
2018,08,11,01,06,8.10
2018,08,11,01,07,8.10
2018,08,11,01,08,8.10
2018,08,11,01,09,8.00
2018,08,11,01,10,8.00
2018,08,11,01,11,7.90
2018,08,11,01,12,7.90
2018,08,11,01,13,7.90
2018,08,11,01,14,7.90
2018,08,11,01,15,7.80
2018,08,11,01,16,7.80
2018,08,11,01,17,7.80
2018,08,11,01,18,7.80
2018,08,11,01,19,7.70
2018,08,11,01,20,7.70
2018,08,11,01,21,7.70
2018,08,11,01,22,7.70
2018,08,11,01,23,7.60
2018,08,11,01,24,7.60
2018,08,11,01,25,7.60
2018,08,11,01,26,7.60
2018,08,11,01,27,7.50
2018,08,11,01,28,7.50
2018,08,11,01,29,7.50
2018,08,11,01,30,7.50
2018,08,11,01,31,7.50
2018,08,11,01,32,7.50
2018,08,11,01,33,7.50
2018,08,11,01,34,7.50
2018,08,11,01,35,7.50
2018,08,11,01,36,7.40
2018,08,11,01,37,7.40
2018,08,11,01,38,7.40
2018,08,11,01,39,7.30
2018,08,11,01,40,7.30
2018,08,11,01,41,7.30
2018,08,11,01,42,7.30
2018,08,11,01,43,7.30
2018,08,11,01,44,7.20
2018,08,11,01,45,7.20
2018,08,11,01,46,7.20
2018,08,11,01,47,7.20
2018,08,11,01,48,7.20
2018,08,11,01,49,7.20
2018,08,11,01,50,7.20
2018,08,11,01,51,7.20
2018,08,11,01,52,7.10
2018,08,11,01,53,7.10
2018,08,11,01,54,7.10
2018,08,11,01,55,7.00
2018,08,11,01,56,7.00
2018,08,11,01,57,7.00
2018,08,11,01,58,7.00
2018,08,11,01,59,7.00
2018,08,11,02,00,7.00
2018,08,11,02,01,7.00
2018,08,11,02,02,7.00
2018,08,11,02,03,7.00
2018,08,11,02,04,7.00
2018,08,11,02,05,7.00
2018,08,11,02,06,7.00
2018,08,11,02,07,7.00
2018,08,11,02,08,7.00
2018,08,11,02,09,6.90
2018,08,11,02,10,6.90
2018,08,11,02,11,6.90
2018,08,11,02,12,6.90
2018,08,11,02,13,6.90
2018,08,11,02,14,6.90
2018,08,11,02,15,6.90
2018,08,11,02,16,6.90
2018,08,11,02,17,6.90
2018,08,11,02,18,6.90
2018,08,11,02,19,6.90
2018,08,11,02,20,6.90
2018,08,11,02,21,6.90
2018,08,11,02,22,6.90
2018,08,11,02,23,6.80
2018,08,11,02,24,6.80
2018,08,11,02,25,6.80
2018,08,11,02,26,6.80
2018,08,11,02,27,6.80
2018,08,11,02,28,6.80
2018,08,11,02,29,6.70
2018,08,11,02,30,6.70
2018,08,11,02,31,6.70
2018,08,11,02,32,6.70
2018,08,11,02,33,6.70
2018,08,11,02,34,6.60
2018,08,11,02,35,6.60
2018,08,11,02,36,6.60
2018,08,11,02,37,6.60
2018,08,11,02,38,6.60
2018,08,11,02,39,6.50
2018,08,11,02,40,6.50
2018,08,11,02,41,6.50
2018,08,11,02,42,6.50
2018,08,11,02,43,6.50
2018,08,11,02,44,6.40
2018,08,11,02,45,6.40
2018,08,11,02,46,6.40
2018,08,11,02,47,6.40
2018,08,11,02,48,6.40
2018,08,11,02,49,6.40
2018,08,11,02,50,6.40
2018,08,11,02,51,6.40
2018,08,11,02,52,6.40
2018,08,11,02,53,6.40
2018,08,11,02,54,6.40
2018,08,11,02,55,6.40
2018,08,11,02,56,6.40
2018,08,11,02,57,6.40
2018,08,11,02,58,6.30
2018,08,11,02,59,6.30
2018,08,11,03,00,6.30
2018,08,11,03,01,6.30
2018,08,11,03,02,6.30
2018,08,11,03,03,6.30
2018,08,11,03,04,6.30
2018,08,11,03,05,6.30
2018,08,11,03,06,6.30
2018,08,11,03,07,6.30
2018,08,11,03,08,6.20
2018,08,11,03,09,6.20
2018,08,11,03,10,6.20
2018,08,11,03,11,6.20
2018,08,11,03,12,6.20
2018,08,11,03,13,6.20
2018,08,11,03,14,6.20
2018,08,11,03,15,6.20
2018,08,11,03,16,6.20
2018,08,11,03,17,6.20
2018,08,11,03,18,6.20
2018,08,11,03,19,6.20
2018,08,11,03,20,6.20
2018,08,11,03,21,6.20
2018,08,11,03,22,6.20
2018,08,11,03,23,6.20
2018,08,11,03,24,6.20
2018,08,11,03,25,6.20
2018,08,11,03,26,6.30
2018,08,11,03,27,6.30
2018,08,11,03,28,6.30
2018,08,11,03,29,6.30
2018,08,11,03,30,6.30
2018,08,11,03,31,6.30
2018,08,11,03,32,6.30
2018,08,11,03,33,6.30
2018,08,11,03,34,6.30
2018,08,11,03,35,6.30
2018,08,11,03,36,6.30
2018,08,11,03,37,6.30
2018,08,11,03,38,6.30
2018,08,11,03,39,6.30
2018,08,11,03,40,6.30
2018,08,11,03,41,6.30
2018,08,11,03,42,6.30
2018,08,11,03,43,6.30
2018,08,11,03,44,6.30
2018,08,11,03,45,6.30
2018,08,11,03,46,6.30
2018,08,11,03,47,6.30
2018,08,11,03,48,6.30
2018,08,11,03,49,6.30
2018,08,11,03,50,6.30
2018,08,11,03,51,6.20
2018,08,11,03,52,6.20
2018,08,11,03,53,6.20
2018,08,11,03,54,6.20
2018,08,11,03,55,6.10
2018,08,11,03,56,6.10
2018,08,11,03,57,6.10
2018,08,11,03,58,6.00
2018,08,11,03,59,6.00
2018,08,11,04,00,6.00
2018,08,11,04,01,5.90
2018,08,11,04,02,5.90
2018,08,11,04,03,5.90
2018,08,11,04,04,5.90
2018,08,11,04,05,5.90
2018,08,11,04,06,5.90
2018,08,11,04,07,5.80
2018,08,11,04,08,5.80
2018,08,11,04,09,5.80
2018,08,11,04,10,5.80
2018,08,11,04,11,5.80
2018,08,11,04,12,5.70
2018,08,11,04,13,5.70
2018,08,11,04,14,5.70
2018,08,11,04,15,5.70
2018,08,11,04,16,5.70
2018,08,11,04,17,5.70
2018,08,11,04,18,5.70
2018,08,11,04,19,5.70
2018,08,11,04,20,5.70
2018,08,11,04,21,5.70
2018,08,11,04,22,5.70
2018,08,11,04,23,5.70
2018,08,11,04,24,5.70
2018,08,11,04,25,5.60
2018,08,11,04,26,5.60
2018,08,11,04,27,5.60
2018,08,11,04,28,5.60
2018,08,11,04,29,5.60
2018,08,11,04,30,5.60
2018,08,11,04,31,5.60
2018,08,11,04,32,5.60
2018,08,11,04,33,5.60
2018,08,11,04,34,5.60
2018,08,11,04,35,5.60
2018,08,11,04,36,5.50
2018,08,11,04,37,5.50
2018,08,11,04,38,5.40
2018,08,11,04,39,5.40
2018,08,11,04,40,5.40
2018,08,11,04,41,5.40
2018,08,11,04,42,5.40
2018,08,11,04,43,5.30
2018,08,11,04,44,5.30
2018,08,11,04,45,5.30
2018,08,11,04,46,5.30
2018,08,11,04,47,5.30
2018,08,11,04,48,5.20
2018,08,11,04,49,5.20
2018,08,11,04,50,5.20
2018,08,11,04,51,5.20
2018,08,11,04,52,5.20
2018,08,11,04,53,5.20
2018,08,11,04,54,5.20
2018,08,11,04,55,5.20
2018,08,11,04,56,5.20
2018,08,11,04,57,5.20
2018,08,11,04,58,5.20
2018,08,11,04,59,5.20
2018,08,11,05,00,5.10
2018,08,11,05,01,5.10
2018,08,11,05,02,5.10
2018,08,11,05,03,5.00
2018,08,11,05,04,5.00
2018,08,11,05,05,5.00
2018,08,11,05,06,5.00
2018,08,11,05,07,5.10
2018,08,11,05,08,5.10
2018,08,11,05,09,5.10
2018,08,11,05,10,5.10
2018,08,11,05,11,5.10
2018,08,11,05,12,5.10
2018,08,11,05,13,5.10
2018,08,11,05,14,5.10
2018,08,11,05,15,5.10
2018,08,11,05,16,5.10
2018,08,11,05,17,5.10
2018,08,11,05,18,5.10
2018,08,11,05,19,5.10
2018,08,11,05,20,5.10
2018,08,11,05,21,5.10
2018,08,11,05,22,5.10
2018,08,11,05,23,5.10
2018,08,11,05,24,5.10
2018,08,11,05,25,5.10
2018,08,11,05,26,5.10
2018,08,11,05,27,5.00
2018,08,11,05,28,5.00
2018,08,11,05,29,4.90
2018,08,11,05,30,4.90
2018,08,11,05,31,4.80
2018,08,11,05,32,4.80
2018,08,11,05,33,4.80
2018,08,11,05,34,4.80
2018,08,11,05,35,4.80
2018,08,11,05,36,4.80
2018,08,11,05,37,4.80
2018,08,11,05,38,4.80
2018,08,11,05,39,4.80
2018,08,11,05,40,4.70
2018,08,11,05,41,4.70
2018,08,11,05,42,4.70
2018,08,11,05,43,4.70
2018,08,11,05,44,4.70
2018,08,11,05,45,4.70
2018,08,11,05,46,4.70
2018,08,11,05,47,4.70
2018,08,11,05,48,4.70
2018,08,11,05,49,4.70
2018,08,11,05,50,4.70
2018,08,11,05,51,4.70
2018,08,11,05,52,4.70
2018,08,11,05,53,4.70
2018,08,11,05,54,4.80
2018,08,11,05,55,4.80
2018,08,11,05,56,4.80
2018,08,11,05,57,4.80
2018,08,11,05,58,4.80
2018,08,11,05,59,4.80
2018,08,11,06,00,4.80
2018,08,11,06,01,4.80
2018,08,11,06,02,4.80
2018,08,11,06,03,4.70
2018,08,11,06,04,4.70
2018,08,11,06,05,4.70
2018,08,11,06,06,4.70
2018,08,11,06,07,4.70
2018,08,11,06,08,4.70
2018,08,11,06,09,4.70
2018,08,11,06,10,4.70
2018,08,11,06,11,4.70
2018,08,11,06,12,4.70
2018,08,11,06,13,4.70
2018,08,11,06,14,4.70
2018,08,11,06,15,4.70
2018,08,11,06,16,4.80
2018,08,11,06,17,4.80
2018,08,11,06,18,4.80
2018,08,11,06,19,4.90
2018,08,11,06,20,4.90
2018,08,11,06,21,4.90
2018,08,11,06,22,4.90
2018,08,11,06,23,4.90
2018,08,11,06,24,4.90
2018,08,11,06,25,4.90
2018,08,11,06,26,4.90
2018,08,11,06,27,4.90
2018,08,11,06,28,4.90
2018,08,11,06,29,4.90
2018,08,11,06,30,4.90
2018,08,11,06,31,4.90
2018,08,11,06,32,4.90
2018,08,11,06,33,4.90
2018,08,11,06,34,4.80
2018,08,11,06,35,4.80
2018,08,11,06,36,4.80
2018,08,11,06,37,4.80
2018,08,11,06,38,4.70
2018,08,11,06,39,4.70
2018,08,11,06,40,4.70
2018,08,11,06,41,4.70
2018,08,11,06,42,4.70
2018,08,11,06,43,4.70
2018,08,11,06,44,4.70
2018,08,11,06,45,4.70
2018,08,11,06,46,4.70
2018,08,11,06,47,4.70
2018,08,11,06,48,4.70
2018,08,11,06,49,4.70
2018,08,11,06,50,4.70
2018,08,11,06,51,4.70
2018,08,11,06,52,4.70
2018,08,11,06,53,4.70
2018,08,11,06,54,4.70
2018,08,11,06,55,4.60
2018,08,11,06,56,4.60
2018,08,11,06,57,4.50
2018,08,11,06,58,4.50
2018,08,11,06,59,4.40
2018,08,11,07,00,4.40
2018,08,11,07,01,4.30
2018,08,11,07,02,4.30
2018,08,11,07,03,4.30
2018,08,11,07,04,4.30
2018,08,11,07,05,4.20
2018,08,11,07,06,4.20
2018,08,11,07,07,4.20
2018,08,11,07,08,4.20
2018,08,11,07,09,4.20
2018,08,11,07,10,4.30
2018,08,11,07,11,4.30
2018,08,11,07,12,4.30
2018,08,11,07,13,4.30
2018,08,11,07,14,4.30
2018,08,11,07,15,4.30
2018,08,11,07,16,4.30
2018,08,11,07,17,4.30
2018,08,11,07,18,4.30
2018,08,11,07,19,4.30
2018,08,11,07,20,4.30
2018,08,11,07,21,4.30
2018,08,11,07,22,4.30
2018,08,11,07,23,4.30
2018,08,11,07,24,4.30
2018,08,11,07,25,4.30
2018,08,11,07,26,4.40
2018,08,11,07,27,4.40
2018,08,11,07,28,4.40
2018,08,11,07,29,4.40
2018,08,11,07,30,4.40
2018,08,11,07,31,4.40
2018,08,11,07,32,4.40
2018,08,11,07,33,4.50
2018,08,11,07,34,4.50
2018,08,11,07,35,4.50
2018,08,11,07,36,4.50
2018,08,11,07,37,4.60
2018,08,11,07,38,4.60
2018,08,11,07,39,4.60
2018,08,11,07,40,4.60
2018,08,11,07,41,4.70
2018,08,11,07,42,4.70
2018,08,11,07,43,4.70
2018,08,11,07,44,4.80
2018,08,11,07,45,4.80
2018,08,11,07,46,4.80
2018,08,11,07,47,4.80
2018,08,11,07,48,4.90
2018,08,11,07,49,4.90
2018,08,11,07,50,4.90
2018,08,11,07,51,5.00
2018,08,11,07,52,5.00
2018,08,11,07,53,5.10
2018,08,11,07,54,5.10
2018,08,11,07,55,5.10
2018,08,11,07,56,5.10
2018,08,11,07,57,5.10
2018,08,11,07,58,5.10
2018,08,11,07,59,5.10
2018,08,11,08,00,5.10
2018,08,11,08,01,5.20
2018,08,11,08,02,5.20
2018,08,11,08,03,5.20
2018,08,11,08,04,5.20
2018,08,11,08,05,5.20
2018,08,11,08,06,5.20
2018,08,11,08,07,5.20
2018,08,11,08,08,5.20
2018,08,11,08,09,5.20
2018,08,11,08,10,5.20
2018,08,11,08,11,5.20
2018,08,11,08,12,5.20
2018,08,11,08,13,5.20
2018,08,11,08,14,5.20
2018,08,11,08,15,5.20
2018,08,11,08,16,5.20
2018,08,11,08,17,5.20
2018,08,11,08,18,5.20
2018,08,11,08,19,5.20
2018,08,11,08,20,5.20
2018,08,11,08,21,5.20
2018,08,11,08,22,5.20
2018,08,11,08,23,5.20
2018,08,11,08,24,5.20
2018,08,11,08,25,5.20
2018,08,11,08,26,5.20
2018,08,11,08,27,5.20
2018,08,11,08,28,5.20
2018,08,11,08,29,5.20
2018,08,11,08,30,5.20
2018,08,11,08,31,5.20
2018,08,11,08,32,5.30
2018,08,11,08,33,5.30
2018,08,11,08,34,5.30
2018,08,11,08,35,5.30
2018,08,11,08,36,5.30
2018,08,11,08,37,5.30
2018,08,11,08,38,5.40
2018,08,11,08,39,5.40
2018,08,11,08,40,5.40
2018,08,11,08,41,5.40
2018,08,11,08,42,5.40
2018,08,11,08,43,5.40
2018,08,11,08,44,5.40
2018,08,11,08,45,5.40
2018,08,11,08,46,5.40
2018,08,11,08,47,5.50
2018,08,11,08,48,5.50
2018,08,11,08,49,5.50
2018,08,11,08,50,5.50
2018,08,11,08,51,5.50
2018,08,11,08,52,5.60
2018,08,11,08,53,5.60
2018,08,11,08,54,5.60
2018,08,11,08,55,5.60
2018,08,11,08,56,5.60
2018,08,11,08,57,5.60
2018,08,11,08,58,5.60
2018,08,11,08,59,5.60
2018,08,11,09,00,5.60
2018,08,11,09,01,5.60
2018,08,11,09,02,5.60
2018,08,11,09,03,5.60
2018,08,11,09,04,5.60
2018,08,11,09,05,5.60
2018,08,11,09,06,5.60
2018,08,11,09,07,5.60
2018,08,11,09,08,5.60
2018,08,11,09,09,5.60
2018,08,11,09,10,5.60
2018,08,11,09,11,5.70
2018,08,11,09,12,5.70
2018,08,11,09,13,5.80
2018,08,11,09,14,5.80
2018,08,11,09,15,5.90
2018,08,11,09,16,5.90
2018,08,11,09,17,6.00
2018,08,11,09,18,6.10
2018,08,11,09,19,6.10
2018,08,11,09,20,6.20
2018,08,11,09,21,6.30
2018,08,11,09,22,6.30
2018,08,11,09,23,6.40
2018,08,11,09,24,6.40
2018,08,11,09,25,6.50
2018,08,11,09,26,6.50
2018,08,11,09,27,6.50
2018,08,11,09,28,6.60
2018,08,11,09,29,6.60
2018,08,11,09,30,6.70
2018,08,11,09,31,6.70
2018,08,11,09,32,6.80
2018,08,11,09,33,6.80
2018,08,11,09,34,6.80
2018,08,11,09,35,6.90
2018,08,11,09,36,6.90
2018,08,11,09,37,6.90
2018,08,11,09,38,7.00
2018,08,11,09,39,7.10
2018,08,11,09,40,7.10
2018,08,11,09,41,7.10
2018,08,11,09,42,7.10
2018,08,11,09,43,7.10
2018,08,11,09,44,7.10
2018,08,11,09,45,7.10
2018,08,11,09,46,7.10
2018,08,11,09,47,7.10
2018,08,11,09,48,7.10
2018,08,11,09,49,7.10
2018,08,11,09,50,7.10
2018,08,11,09,51,7.20
2018,08,11,09,52,7.20
2018,08,11,09,53,7.20
2018,08,11,09,54,7.30
2018,08,11,09,55,7.30
2018,08,11,09,56,7.30
2018,08,11,09,57,7.30
2018,08,11,09,58,7.30
2018,08,11,09,59,7.30
2018,08,11,10,00,7.40
2018,08,11,10,01,7.40
2018,08,11,10,02,7.40
2018,08,11,10,03,7.40
2018,08,11,10,04,7.50
2018,08,11,10,05,7.50
2018,08,11,10,06,7.60
2018,08,11,10,07,7.60
2018,08,11,10,08,7.70
2018,08,11,10,09,7.70
2018,08,11,10,10,7.80
2018,08,11,10,11,7.80
2018,08,11,10,12,7.90
2018,08,11,10,13,7.90
2018,08,11,10,14,8.00
2018,08,11,10,15,8.00
2018,08,11,10,16,8.00
2018,08,11,10,17,8.10
2018,08,11,10,18,8.10
2018,08,11,10,19,8.10
2018,08,11,10,20,8.20
2018,08,11,10,21,8.20
2018,08,11,10,22,8.20
2018,08,11,10,23,8.30
2018,08,11,10,24,8.30
2018,08,11,10,25,8.40
2018,08,11,10,26,8.40
2018,08,11,10,27,8.50
2018,08,11,10,28,8.60
2018,08,11,10,29,8.60
2018,08,11,10,30,8.60
2018,08,11,10,31,8.70
2018,08,11,10,32,8.70
2018,08,11,10,33,8.80
2018,08,11,10,34,8.80
2018,08,11,10,35,8.90
2018,08,11,10,36,8.90
2018,08,11,10,37,9.00
2018,08,11,10,38,9.00
2018,08,11,10,39,9.10
2018,08,11,10,40,9.10
2018,08,11,10,41,9.20
2018,08,11,10,42,9.20
2018,08,11,10,43,9.30
2018,08,11,10,44,9.40
2018,08,11,10,45,9.40
2018,08,11,10,46,9.50
2018,08,11,10,47,9.50
2018,08,11,10,48,9.60
2018,08,11,10,49,9.60
2018,08,11,10,50,9.70
2018,08,11,10,51,9.80
2018,08,11,10,52,9.80
2018,08,11,10,53,9.90
2018,08,11,10,54,9.90
2018,08,11,10,55,10.00
2018,08,11,10,56,10.00
2018,08,11,10,57,10.10
2018,08,11,10,58,10.10
2018,08,11,10,59,10.10
2018,08,11,11,00,10.10
2018,08,11,11,01,10.10
2018,08,11,11,02,10.20
2018,08,11,11,03,10.20
2018,08,11,11,04,10.20
2018,08,11,11,05,10.20
2018,08,11,11,06,10.20
2018,08,11,11,07,10.20
2018,08,11,11,08,10.30
2018,08,11,11,09,10.30
2018,08,11,11,10,10.40
2018,08,11,11,11,10.40
2018,08,11,11,12,10.40
2018,08,11,11,13,10.40
2018,08,11,11,14,10.50
2018,08,11,11,15,10.60
2018,08,11,11,16,10.60
2018,08,11,11,17,10.70
2018,08,11,11,18,10.80
2018,08,11,11,19,10.80
2018,08,11,11,20,10.90
2018,08,11,11,21,11.00
2018,08,11,11,22,11.10
2018,08,11,11,23,11.20
2018,08,11,11,24,11.20
2018,08,11,11,25,11.30
2018,08,11,11,26,11.40
2018,08,11,11,27,11.50
2018,08,11,11,28,11.60
2018,08,11,11,29,11.60
2018,08,11,11,30,11.70
2018,08,11,11,31,11.80
2018,08,11,11,32,11.80
2018,08,11,11,33,11.80
2018,08,11,11,34,11.80
2018,08,11,11,35,11.90
2018,08,11,11,36,11.90
2018,08,11,11,37,12.00
2018,08,11,11,38,12.00
2018,08,11,11,39,12.10
2018,08,11,11,40,12.10
2018,08,11,11,41,12.10
2018,08,11,11,42,12.10
2018,08,11,11,43,12.10
2018,08,11,11,44,12.10
2018,08,11,11,45,12.10
2018,08,11,11,46,12.10
2018,08,11,11,47,12.10
2018,08,11,11,48,12.20
2018,08,11,11,49,12.20
2018,08,11,11,50,12.20
2018,08,11,11,51,12.30
2018,08,11,11,52,12.30
2018,08,11,11,53,12.40
2018,08,11,11,54,12.50
2018,08,11,11,55,12.60
2018,08,11,11,56,12.60
2018,08,11,11,57,12.60
2018,08,11,11,58,12.70
2018,08,11,11,59,12.80
2018,08,11,12,00,12.90
2018,08,11,12,01,13.00
2018,08,11,12,02,13.10
2018,08,11,12,03,13.20
2018,08,11,12,04,13.20
2018,08,11,12,05,13.30
2018,08,11,12,06,13.40
2018,08,11,12,07,13.50
2018,08,11,12,08,13.60
2018,08,11,12,09,13.70
2018,08,11,12,10,13.80
2018,08,11,12,11,14.00
2018,08,11,12,12,14.10
2018,08,11,12,13,14.20
2018,08,11,12,14,14.30
2018,08,11,12,15,14.40
2018,08,11,12,16,14.50
2018,08,11,12,17,14.60
2018,08,11,12,18,14.60
2018,08,11,12,19,14.70
2018,08,11,12,20,14.80
2018,08,11,12,21,14.90
2018,08,11,12,22,14.90
2018,08,11,12,23,14.90
2018,08,11,12,24,14.90
2018,08,11,12,25,14.90
2018,08,11,12,26,15.00
2018,08,11,12,27,15.10
2018,08,11,12,28,15.20
2018,08,11,12,29,15.20
2018,08,11,12,30,15.30
2018,08,11,12,31,15.40
2018,08,11,12,32,15.50
2018,08,11,12,33,15.50
2018,08,11,12,34,15.40
2018,08,11,12,35,15.40
2018,08,11,12,36,15.30
2018,08,11,12,37,15.30
2018,08,11,12,38,15.30
2018,08,11,12,39,15.30
2018,08,11,12,40,15.30
2018,08,11,12,41,15.30
2018,08,11,12,42,15.30
2018,08,11,12,43,15.30
2018,08,11,12,44,15.30
2018,08,11,12,45,15.30
2018,08,11,12,46,15.40
2018,08,11,12,47,15.50
2018,08,11,12,48,15.50
2018,08,11,12,49,15.60
2018,08,11,12,50,15.60
2018,08,11,12,51,15.70
2018,08,11,12,52,15.70
2018,08,11,12,53,15.70
2018,08,11,12,54,15.70
2018,08,11,12,55,15.70
2018,08,11,12,56,15.80
2018,08,11,12,57,15.80
2018,08,11,12,58,15.90
2018,08,11,12,59,15.90
2018,08,11,13,00,15.90
2018,08,11,13,01,16.00
2018,08,11,13,02,16.00
2018,08,11,13,03,16.10
2018,08,11,13,04,16.10
2018,08,11,13,05,16.10
2018,08,11,13,06,16.20
2018,08,11,13,07,16.30
2018,08,11,13,08,16.40
2018,08,11,13,09,16.50
2018,08,11,13,10,16.60
2018,08,11,13,11,16.70
2018,08,11,13,12,16.80
2018,08,11,13,13,16.90
2018,08,11,13,14,17.00
2018,08,11,13,15,17.00
2018,08,11,13,16,17.10
2018,08,11,13,17,17.10
2018,08,11,13,18,17.20
2018,08,11,13,19,17.20
2018,08,11,13,20,17.30
2018,08,11,13,21,17.30
2018,08,11,13,22,17.40
2018,08,11,13,23,17.40
2018,08,11,13,24,17.50
2018,08,11,13,25,17.60
2018,08,11,13,26,17.70
2018,08,11,13,27,17.80
2018,08,11,13,28,17.90
2018,08,11,13,29,17.90
2018,08,11,13,30,18.00
2018,08,11,13,31,18.10
2018,08,11,13,32,18.10
2018,08,11,13,33,18.20
2018,08,11,13,34,18.20
2018,08,11,13,35,18.20
2018,08,11,13,36,18.20
2018,08,11,13,37,18.30
2018,08,11,13,38,18.30
2018,08,11,13,39,18.30
2018,08,11,13,40,18.40
2018,08,11,13,41,18.40
2018,08,11,13,42,18.40
2018,08,11,13,43,18.40
2018,08,11,13,44,18.50
2018,08,11,13,45,18.50
2018,08,11,13,46,18.60
2018,08,11,13,47,18.70
2018,08,11,13,48,18.70
2018,08,11,13,49,18.70
2018,08,11,13,50,18.80
2018,08,11,13,51,18.80
2018,08,11,13,52,18.80
2018,08,11,13,53,18.80
2018,08,11,13,54,18.80
2018,08,11,13,55,18.80
2018,08,11,13,56,18.90
2018,08,11,13,57,18.90
2018,08,11,13,58,18.90
2018,08,11,13,59,19.00
2018,08,11,14,00,19.00
2018,08,11,14,01,19.00
2018,08,11,14,02,19.00
2018,08,11,14,03,19.00
2018,08,11,14,04,19.00
2018,08,11,14,05,19.00
2018,08,11,14,06,19.00
2018,08,11,14,07,19.10
2018,08,11,14,08,19.10
2018,08,11,14,09,19.20
2018,08,11,14,10,19.30
2018,08,11,14,11,19.30
2018,08,11,14,12,19.40
2018,08,11,14,13,19.40
2018,08,11,14,14,19.50
2018,08,11,14,15,19.60
2018,08,11,14,16,19.60
2018,08,11,14,17,19.60
2018,08,11,14,18,19.60
2018,08,11,14,19,19.60
2018,08,11,14,20,19.60
2018,08,11,14,21,19.60
2018,08,11,14,22,19.60
2018,08,11,14,23,19.70
2018,08,11,14,24,19.70
2018,08,11,14,25,19.70
2018,08,11,14,26,19.70
2018,08,11,14,27,19.80
2018,08,11,14,28,19.80
2018,08,11,14,29,19.80
2018,08,11,14,30,19.90
2018,08,11,14,31,19.90
2018,08,11,14,32,19.90
2018,08,11,14,33,20.00
2018,08,11,14,34,20.00
2018,08,11,14,35,20.00
2018,08,11,14,36,20.10
2018,08,11,14,37,20.10
2018,08,11,14,38,20.10
2018,08,11,14,39,20.10
2018,08,11,14,40,20.10
2018,08,11,14,41,20.10
2018,08,11,14,42,20.10
2018,08,11,14,43,20.10
2018,08,11,14,44,20.20
2018,08,11,14,45,20.20
2018,08,11,14,46,20.20
2018,08,11,14,47,20.20
2018,08,11,14,48,20.20
2018,08,11,14,49,20.30
2018,08,11,14,50,20.30
2018,08,11,14,51,20.30
2018,08,11,14,52,20.30
2018,08,11,14,53,20.30
2018,08,11,14,54,20.30
2018,08,11,14,55,20.30
2018,08,11,14,56,20.30
2018,08,11,14,57,20.30
2018,08,11,14,58,20.30
2018,08,11,14,59,20.40
2018,08,11,15,00,20.40
2018,08,11,15,01,20.40
2018,08,11,15,02,20.40
2018,08,11,15,03,20.40
2018,08,11,15,04,20.40
2018,08,11,15,05,20.40
2018,08,11,15,06,20.40
2018,08,11,15,07,20.50
2018,08,11,15,08,20.50
2018,08,11,15,09,20.60
2018,08,11,15,10,20.60
2018,08,11,15,11,20.60
2018,08,11,15,12,20.70
2018,08,11,15,13,20.70
2018,08,11,15,14,20.70
2018,08,11,15,15,20.80
2018,08,11,15,16,20.80
2018,08,11,15,17,20.80
2018,08,11,15,18,20.80
2018,08,11,15,19,20.80
2018,08,11,15,20,20.80
2018,08,11,15,21,20.90
2018,08,11,15,22,20.90
2018,08,11,15,23,20.90
2018,08,11,15,24,20.90
2018,08,11,15,25,20.80
2018,08,11,15,26,20.80
2018,08,11,15,27,20.80
2018,08,11,15,28,20.80
2018,08,11,15,29,20.90
2018,08,11,15,30,20.90
2018,08,11,15,31,20.90
2018,08,11,15,32,20.90
2018,08,11,15,33,20.90
2018,08,11,15,34,20.90
2018,08,11,15,35,20.90
2018,08,11,15,36,20.90
2018,08,11,15,37,20.90
2018,08,11,15,38,20.90
2018,08,11,15,39,20.90
2018,08,11,15,40,20.90
2018,08,11,15,41,20.90
2018,08,11,15,42,20.90
2018,08,11,15,43,21.00
2018,08,11,15,44,21.00
2018,08,11,15,45,21.00
2018,08,11,15,46,21.00
2018,08,11,15,47,21.00
2018,08,11,15,48,21.00
2018,08,11,15,49,20.90
2018,08,11,15,50,20.90
2018,08,11,15,51,20.90
2018,08,11,15,52,20.90
2018,08,11,15,53,20.90
2018,08,11,15,54,20.90
2018,08,11,15,55,20.90
2018,08,11,15,56,20.90
2018,08,11,15,57,20.90
2018,08,11,15,58,20.90
2018,08,11,15,59,20.90
2018,08,11,16,00,21.00
2018,08,11,16,01,21.00
2018,08,11,16,02,21.10
2018,08,11,16,03,21.10
2018,08,11,16,04,21.10
2018,08,11,16,05,21.00
2018,08,11,16,06,21.00
2018,08,11,16,07,20.90
2018,08,11,16,08,20.80
2018,08,11,16,09,20.70
2018,08,11,16,10,20.60
2018,08,11,16,11,20.50
2018,08,11,16,12,20.40
2018,08,11,16,13,20.40
2018,08,11,16,14,20.30
2018,08,11,16,15,20.30
2018,08,11,16,16,20.30
2018,08,11,16,17,20.30
2018,08,11,16,18,20.30
2018,08,11,16,19,20.30
2018,08,11,16,20,20.30
2018,08,11,16,21,20.30
2018,08,11,16,22,20.30
2018,08,11,16,23,20.20
2018,08,11,16,24,20.20
2018,08,11,16,25,20.20
2018,08,11,16,26,20.20
2018,08,11,16,27,20.20
2018,08,11,16,28,20.20
2018,08,11,16,29,20.20
2018,08,11,16,30,20.30
2018,08,11,16,31,20.30
2018,08,11,16,32,20.40
2018,08,11,16,33,20.50
2018,08,11,16,34,20.60
2018,08,11,16,35,20.60
2018,08,11,16,36,20.60
2018,08,11,16,37,20.70
2018,08,11,16,38,20.70
2018,08,11,16,39,20.70
2018,08,11,16,40,20.70
2018,08,11,16,41,20.70
2018,08,11,16,42,20.70
2018,08,11,16,43,20.70
2018,08,11,16,44,20.70
2018,08,11,16,45,20.70
2018,08,11,16,46,20.70
2018,08,11,16,47,20.70
2018,08,11,16,48,20.70
2018,08,11,16,49,20.70
2018,08,11,16,50,20.70
2018,08,11,16,51,20.70
2018,08,11,16,52,20.70
2018,08,11,16,53,20.70
2018,08,11,16,54,20.70
2018,08,11,16,55,20.70
2018,08,11,16,56,20.80
2018,08,11,16,57,20.80
2018,08,11,16,58,20.80
2018,08,11,16,59,20.80
2018,08,11,17,00,20.90
2018,08,11,17,01,20.90
2018,08,11,17,02,20.90
2018,08,11,17,03,21.00
2018,08,11,17,04,21.10
2018,08,11,17,05,21.10
2018,08,11,17,06,21.20
2018,08,11,17,07,21.20
2018,08,11,17,08,21.20
2018,08,11,17,09,21.30
2018,08,11,17,10,21.30
2018,08,11,17,11,21.30
2018,08,11,17,12,21.20
2018,08,11,17,13,21.10
2018,08,11,17,14,20.80
2018,08,11,17,15,20.50
2018,08,11,17,16,20.30
2018,08,11,17,17,20.00
2018,08,11,17,18,19.90
2018,08,11,17,19,19.80
2018,08,11,17,20,19.80
2018,08,11,17,21,19.70
2018,08,11,17,22,19.70
2018,08,11,17,23,19.60
2018,08,11,17,24,19.60
2018,08,11,17,25,19.60
2018,08,11,17,26,19.60
2018,08,11,17,27,19.70
2018,08,11,17,28,19.70
2018,08,11,17,29,19.80
2018,08,11,17,30,19.80
2018,08,11,17,31,19.70
2018,08,11,17,32,19.60
2018,08,11,17,33,19.50
2018,08,11,17,34,19.40
2018,08,11,17,35,19.40
2018,08,11,17,36,19.30
2018,08,11,17,37,19.30
2018,08,11,17,38,19.20
2018,08,11,17,39,19.10
2018,08,11,17,40,19.10
2018,08,11,17,41,19.00
2018,08,11,17,42,19.00
2018,08,11,17,43,19.00
2018,08,11,17,44,18.90
2018,08,11,17,45,18.90
2018,08,11,17,46,18.90
2018,08,11,17,47,18.90